Location: Central Falls
(41.8900°N, 71.3929°W)
Time: 07:19:17
(UTC+00:00)

Tiros 1 despin weight - Pass Details

Date: 08 December 2023
Orbit: 581 x 624 km, 48.2° (Epoch: 24 February)

Event Time Altitude Azimuth Distance (km) Brightness Sun altitude
Rises 22:47:37 0° 264° (W) 2,808 ? -16.8°
Reaches altitude 10° 22:49:59 10° 270° (W) 1,903 ? -17.2°
Maximum altitude 22:54:10 46° 344° (NNW) 786 ? -17.9°
Enters shadow 22:55:42 32° 35° (NE) 1,005 ? -18.2°
